Flag for Switzerland Weather past 2 weeks in Lancy, Geneva, Switzerland

Now
48 °F

Passing clouds.


Feels Like: 42 °F
Forecast: 28 / 65 °F
Wind: 17 mph from Northeast

Location: Geneva Cointrin Airport


UV Index: 5 (Moderate)

Visibility: N/A


Pressure: 30.18 "Hg

Humidity: 50%

Dew point: 30 °F

Location of LancyLocation

Historic Weather in Lancy

°F

Lancy temperature yesterday

Maximum temperature yesterday: 57 °F (at 3:20 PM)
Minimum temperature yesterday: 41 °F (at 5:20 AM)
Average temperature yesterday: 51 °F

Past Weeks' High & Low Weather Summary

 TemperatureHumidityPressure
High75 °F (Apr 7, 4:50 PM)100% (Apr 2, 5:50 AM)30.30 "Hg (Apr 2, 5:50 AM)
Low37 °F (Apr 10, 6:20 AM)21% (Apr 15, 3:50 PM)29.65 "Hg (Apr 3, 3:20 PM)
Average56 °F64%30.01 "Hg
* Reported Apr 1 11:20 AM — Apr 16 11:20 AM, Lancy, Weather by CustomWeather, © 2014

Note: Actual official high and low records may vary slightly from our data, if they occured in-between our weather recording intervals... More about our weather records

Advertising

Historic Weather Conditions — Data for Previous 24 hours

 ConditionsComfort  
Time TempWeatherWind HumidityBarometerVisibility
11:20 AM
Apr 16
46 °FPassing clouds.17 mph53%30.18 "HgN/A
10:50 AM46 °FPassing clouds.15 mph57%30.18 "HgN/A
10:20 AM46 °FPassing clouds.16 mph53%30.21 "HgN/A
9:50 AM45 °FPassing clouds.16 mph53%30.21 "HgN/A
9:20 AM45 °FPassing clouds.17 mph53%30.21 "HgN/A
8:50 AM43 °FPassing clouds.17 mph57%30.21 "HgN/A
8:20 AM43 °FPassing clouds.10 mph53%30.21 "HgN/A
7:50 AM41 °FPassing clouds.12 mph57%30.21 "HgN/A
7:20 AM39 °FPassing clouds.6 mph61%30.21 "HgN/A
6:50 AM41 °FPassing clouds.8 mph57%30.21 "HgN/A
6:20 AM41 °FPassing clouds.9 mph57%30.21 "HgN/A
5:50 AM41 °FPassing clouds.10 mph57%30.21 "HgN/A
5:20 AM41 °FPassing clouds.12 mph57%30.21 "HgN/A
4:50 AM41 °FPassing clouds.12 mph57%30.21 "HgN/A
4:20 AM43 °FPassing clouds.13 mph57%30.21 "HgN/A
3:50 AM43 °FPassing clouds.12 mph57%30.21 "HgN/A
2:50 AM45 °FPassing clouds.14 mph53%30.21 "HgN/A
12:50 AM45 °FClear.2 mph53%30.21 "Hg10 mi
12:20 AM45 °FClear.2 mph53%30.21 "Hg10 mi
11:50 PM
Apr 15
45 °FPassing clouds.3 mph53%30.21 "HgN/A
11:20 PM45 °FPassing clouds.5 mph53%30.21 "HgN/A
10:50 PM48 °FPassing clouds.7 mph46%30.18 "HgN/A
10:20 PM50 °FPassing clouds.10 mph43%30.18 "HgN/A
9:50 PM50 °FPassing clouds.13 mph40%30.18 "HgN/A
9:20 PM50 °FPassing clouds.13 mph37%30.18 "HgN/A
8:50 PM52 °FSunny.15 mph38%30.15 "Hg10 mi
8:20 PM52 °FSunny.16 mph41%30.15 "Hg10 mi
7:50 PM54 °FSunny.15 mph38%30.15 "Hg10 mi
7:20 PM55 °FSunny.17 mph36%30.12 "Hg10 mi
6:50 PM55 °FSunny.17 mph33%30.12 "Hg10 mi
6:20 PM57 °FSunny.17 mph31%30.12 "Hg10 mi
5:50 PM57 °FSunny.17 mph31%30.12 "Hg10 mi
5:20 PM57 °FSunny.17 mph27%30.12 "Hg10 mi
4:50 PM57 °FPassing clouds.15 mph27%30.12 "HgN/A
4:20 PM57 °FSunny.17 mph25%30.15 "Hg10 mi
3:50 PM57 °FPassing clouds.18 mph21%30.15 "HgN/A
3:20 PM57 °FPassing clouds.17 mph27%30.15 "HgN/A
2:50 PM55 °FPassing clouds.18 mph28%30.15 "HgN/A
2:20 PM55 °FPassing clouds.20 mph31%30.15 "HgN/A
1:50 PM55 °FPassing clouds.18 mph28%30.15 "HgN/A
1:20 PM54 °FPassing clouds.20 mph35%30.15 "HgN/A
12:50 PM54 °FPassing clouds.20 mph38%30.15 "HgN/A
12:20 PM52 °FPassing clouds.20 mph44%30.15 "HgN/A
Weather by CustomWeather, © 2014

See weather overview